Simultaneous Nadir Overpasses (SNOs) Predictions

Prediction of SNOs near US between AQUA and NPP Satellite Orbit:

Table of predicted SNOs near US for the next 10.0 days since TLE Epoch: 12/25/2015
Index Date (AQUA) Time (AQUA) AQUA Lat,Lon Date (NPP) Time (NPP) NPP Lat,Lon Distance(km) Time Diff (sec)
1 12/26/2015 19:06:22 49.96, -92.56 12/26/2015 19:03:28 49.65, -94.42 138.00 174
2 12/26/2015 20:45:15 49.96,-117.28 12/26/2015 20:44:56 49.54,-119.75 183.31 19
3 12/29/2015 08:33:39 25.15,-100.67 12/29/2015 08:26:44 25.18,-100.81 14.42 415
4 12/29/2015 10:10:00 34.23,-123.03 12/29/2015 10:05:36 34.35,-123.67 60.41 264
5 01/01/2016 07:18:45 49.89, -76.00 01/01/2016 07:22:23 50.32, -78.26 168.44 218
6 01/01/2016 08:57:38 49.90,-100.72 01/01/2016 09:03:50 50.49,-103.56 212.94 372
7 01/03/2016 18:16:53
